Year,Month,Day,Hour,Minute,Value (Times are PST for temperature in C)
2009,07,23,08,27,14.80
2009,07,23,08,28,14.80
2009,07,23,08,29,15.00
2009,07,23,08,30,15.00
2009,07,23,08,31,15.00
2009,07,23,08,32,15.10
2009,07,23,08,33,15.20
2009,07,23,08,34,15.30
2009,07,23,08,35,15.20
2009,07,23,08,36,15.10
2009,07,23,08,37,15.00
2009,07,23,08,38,15.00
2009,07,23,08,39,15.00
2009,07,23,08,40,15.00
2009,07,23,08,41,14.90
2009,07,23,08,42,14.80
2009,07,23,08,43,14.70
2009,07,23,08,44,14.70
2009,07,23,08,45,14.60
2009,07,23,08,46,14.70
2009,07,23,08,47,14.80
2009,07,23,08,48,14.90
2009,07,23,08,49,15.00
2009,07,23,08,50,15.00
2009,07,23,08,51,15.00
2009,07,23,08,52,15.00
2009,07,23,08,53,15.00
2009,07,23,08,54,15.00
2009,07,23,08,55,15.00
2009,07,23,08,56,15.00
2009,07,23,08,57,15.00
2009,07,23,08,58,15.00
2009,07,23,08,59,15.00
2009,07,23,09,00,15.00
2009,07,23,09,01,15.00
2009,07,23,09,02,15.20
2009,07,23,09,03,15.30
2009,07,23,09,04,15.40
2009,07,23,09,05,15.40
2009,07,23,09,06,15.50
2009,07,23,09,07,15.70
2009,07,23,09,08,15.70
2009,07,23,09,09,15.80
2009,07,23,09,10,15.90
2009,07,23,09,11,15.90
2009,07,23,09,12,16.00
2009,07,23,09,13,16.00
2009,07,23,09,14,16.00
2009,07,23,09,15,16.00
2009,07,23,09,16,15.90
2009,07,23,09,17,15.90
2009,07,23,09,18,16.00
2009,07,23,09,19,16.10
2009,07,23,09,20,16.10
2009,07,23,09,21,16.10
2009,07,23,09,22,16.10
2009,07,23,09,23,16.00
2009,07,23,09,24,16.00
2009,07,23,09,25,16.10
2009,07,23,09,26,16.20
2009,07,23,09,27,16.20
2009,07,23,09,28,16.20
2009,07,23,09,29,16.20
2009,07,23,09,30,16.10
2009,07,23,09,31,15.80
2009,07,23,09,32,15.60
2009,07,23,09,33,15.50
2009,07,23,09,34,15.30
2009,07,23,09,35,15.30
2009,07,23,09,36,15.30
2009,07,23,09,37,15.20
2009,07,23,09,38,15.20
2009,07,23,09,39,15.30
2009,07,23,09,40,15.30
2009,07,23,09,41,15.40
2009,07,23,09,42,15.40
2009,07,23,09,43,15.40
2009,07,23,09,44,15.40
2009,07,23,09,45,15.30
2009,07,23,09,46,15.30
2009,07,23,09,47,15.20
2009,07,23,09,48,15.00
2009,07,23,09,49,15.10
2009,07,23,09,50,15.10
2009,07,23,09,51,15.20
2009,07,23,09,52,15.30
2009,07,23,09,53,15.30
2009,07,23,09,54,15.30
2009,07,23,09,55,15.30
2009,07,23,09,56,15.30
2009,07,23,09,57,15.30
2009,07,23,09,58,15.30
2009,07,23,09,59,15.30
2009,07,23,10,00,15.40
2009,07,23,10,01,15.50
2009,07,23,10,02,15.60
2009,07,23,10,03,15.70
2009,07,23,10,04,15.70
2009,07,23,10,05,15.90
2009,07,23,10,06,16.00
2009,07,23,10,07,16.10
2009,07,23,10,08,16.20
2009,07,23,10,09,16.30
2009,07,23,10,10,16.30
2009,07,23,10,11,16.20
2009,07,23,10,12,16.10
2009,07,23,10,13,16.10
2009,07,23,10,14,16.10
2009,07,23,10,15,16.10
2009,07,23,10,16,16.20
2009,07,23,10,17,16.20
2009,07,23,10,18,16.20
2009,07,23,10,19,16.40
2009,07,23,10,20,16.50
2009,07,23,10,21,16.60
2009,07,23,10,22,16.60
2009,07,23,10,23,16.60
2009,07,23,10,24,16.50
2009,07,23,10,25,16.40
2009,07,23,10,26,16.50
2009,07,23,10,27,16.60
2009,07,23,10,28,16.70
2009,07,23,10,29,16.60
2009,07,23,10,30,16.60
2009,07,23,10,31,16.60
2009,07,23,10,32,16.70
2009,07,23,10,33,16.80
2009,07,23,10,34,16.90
2009,07,23,10,35,17.00
2009,07,23,10,36,17.00
2009,07,23,10,37,17.00
2009,07,23,10,38,17.00
2009,07,23,10,39,17.00
2009,07,23,10,40,17.10
2009,07,23,10,41,17.10
2009,07,23,10,42,17.20
2009,07,23,10,43,17.10
2009,07,23,10,44,16.90
2009,07,23,10,45,16.80
2009,07,23,10,46,16.80
2009,07,23,10,47,16.80
2009,07,23,10,48,16.80
2009,07,23,10,49,16.80
2009,07,23,10,50,16.80
2009,07,23,10,51,16.90
2009,07,23,10,52,16.90
2009,07,23,10,53,16.90
2009,07,23,10,54,16.80
2009,07,23,10,55,16.80
2009,07,23,10,56,16.80
2009,07,23,10,57,16.90
2009,07,23,10,58,17.00
2009,07,23,10,59,17.10
2009,07,23,11,00,17.20
2009,07,23,11,01,17.30
2009,07,23,11,02,17.30
2009,07,23,11,03,17.30
2009,07,23,11,04,17.30
2009,07,23,11,05,17.20
2009,07,23,11,06,17.10
2009,07,23,11,07,17.10
2009,07,23,11,08,17.10
2009,07,23,11,09,17.10
2009,07,23,11,10,17.10
2009,07,23,11,11,17.00
2009,07,23,11,12,17.00
2009,07,23,11,13,17.00
2009,07,23,11,14,16.90
2009,07,23,11,15,16.90
2009,07,23,11,16,17.00
2009,07,23,11,17,17.00
2009,07,23,11,18,17.00
2009,07,23,11,19,16.90
2009,07,23,11,20,16.90
2009,07,23,11,21,17.00
2009,07,23,11,22,16.90
2009,07,23,11,23,16.90
2009,07,23,11,24,16.70
2009,07,23,11,25,16.50
2009,07,23,11,26,16.40
2009,07,23,11,27,16.50
2009,07,23,11,28,16.50
2009,07,23,11,29,16.60
2009,07,23,11,30,16.70
2009,07,23,11,31,16.60
2009,07,23,11,32,16.60
2009,07,23,11,33,16.70
2009,07,23,11,34,16.70
2009,07,23,11,35,16.80
2009,07,23,11,36,16.80
2009,07,23,11,37,16.90
2009,07,23,11,38,16.90
2009,07,23,11,39,16.90
2009,07,23,11,40,17.00
2009,07,23,11,41,17.00
2009,07,23,11,42,16.90
2009,07,23,11,43,16.70
2009,07,23,11,44,16.60
2009,07,23,11,45,16.60
2009,07,23,11,46,16.50
2009,07,23,11,47,16.40
2009,07,23,11,48,16.30
2009,07,23,11,49,16.20
2009,07,23,11,50,16.10
2009,07,23,11,51,15.90
2009,07,23,11,52,15.90
2009,07,23,11,53,16.00
2009,07,23,11,54,16.10
2009,07,23,11,55,16.10
2009,07,23,11,56,16.20
2009,07,23,11,57,16.20
2009,07,23,11,58,16.30
2009,07,23,11,59,16.40
2009,07,23,12,00,16.50
2009,07,23,12,01,16.40
2009,07,23,12,02,16.40
2009,07,23,12,03,16.40
2009,07,23,12,04,16.50
2009,07,23,12,05,16.70
2009,07,23,12,06,16.80
2009,07,23,12,07,16.80
2009,07,23,12,08,16.90
2009,07,23,12,09,16.90
2009,07,23,12,10,17.00
2009,07,23,12,11,17.00
2009,07,23,12,12,16.80
2009,07,23,12,13,16.70
2009,07,23,12,14,16.50
2009,07,23,12,15,16.40
2009,07,23,12,16,16.30
2009,07,23,12,17,16.20
2009,07,23,12,18,16.00
2009,07,23,12,19,16.00
2009,07,23,12,20,15.90
2009,07,23,12,21,15.90
2009,07,23,12,22,15.90
2009,07,23,12,23,15.80
2009,07,23,12,24,15.80
2009,07,23,12,25,15.70
2009,07,23,12,26,15.60
2009,07,23,12,27,15.50
2009,07,23,12,28,15.40
2009,07,23,12,29,15.40
2009,07,23,12,30,15.40
2009,07,23,12,31,15.40
2009,07,23,12,32,15.40
2009,07,23,12,33,15.40
2009,07,23,12,34,15.40
2009,07,23,12,35,15.40
2009,07,23,12,36,15.40
2009,07,23,12,37,15.50
2009,07,23,12,38,15.60
2009,07,23,12,39,15.60
2009,07,23,12,40,15.50
2009,07,23,12,41,15.50
2009,07,23,12,42,15.40
2009,07,23,12,43,15.30
2009,07,23,12,44,15.40
2009,07,23,12,45,15.40
2009,07,23,12,46,15.40
2009,07,23,12,47,15.50
2009,07,23,12,48,15.60
2009,07,23,12,49,15.60
2009,07,23,12,50,15.70
2009,07,23,12,51,15.80
2009,07,23,12,52,15.90
2009,07,23,12,53,16.10
2009,07,23,12,54,16.20
2009,07,23,12,55,16.30
2009,07,23,12,56,16.50
2009,07,23,12,57,16.70
2009,07,23,12,58,16.70
2009,07,23,12,59,16.80
2009,07,23,13,00,17.00
2009,07,23,13,01,17.10
2009,07,23,13,02,17.30
2009,07,23,13,03,17.40
2009,07,23,13,04,17.50
2009,07,23,13,05,17.50
2009,07,23,13,06,17.30
2009,07,23,13,07,17.20
2009,07,23,13,08,17.10
2009,07,23,13,09,17.10
2009,07,23,13,10,17.00
2009,07,23,13,11,16.90
2009,07,23,13,12,16.80
2009,07,23,13,13,16.80
2009,07,23,13,14,16.60
2009,07,23,13,15,16.50
2009,07,23,13,16,16.40
2009,07,23,13,17,16.30
2009,07,23,13,18,16.20
2009,07,23,13,19,16.20
2009,07,23,13,20,16.20
2009,07,23,13,21,16.10
2009,07,23,13,22,16.10
2009,07,23,13,23,16.10
2009,07,23,13,24,16.20
2009,07,23,13,25,16.20
2009,07,23,13,26,16.30
2009,07,23,13,27,16.30
2009,07,23,13,28,16.40
2009,07,23,13,29,16.50
2009,07,23,13,30,16.60
2009,07,23,13,31,16.70
2009,07,23,13,32,16.70
2009,07,23,13,33,16.80
2009,07,23,13,34,16.80
2009,07,23,13,35,16.80
2009,07,23,13,36,16.80
2009,07,23,13,37,16.90
2009,07,23,13,38,17.00
2009,07,23,13,39,17.10
2009,07,23,13,40,17.20
2009,07,23,13,41,17.20
2009,07,23,13,42,17.30
2009,07,23,13,43,17.40
2009,07,23,13,44,17.40
2009,07,23,13,45,17.40
2009,07,23,13,46,17.40
2009,07,23,13,47,17.30
2009,07,23,13,48,17.10
2009,07,23,13,49,17.10
2009,07,23,13,50,17.00
2009,07,23,13,51,17.00
2009,07,23,13,52,16.90
2009,07,23,13,53,17.00
2009,07,23,13,54,17.00
2009,07,23,13,55,16.90
2009,07,23,13,56,16.80
2009,07,23,13,57,16.80
2009,07,23,13,58,16.80
2009,07,23,13,59,16.80
2009,07,23,14,00,16.80
2009,07,23,14,01,16.80
2009,07,23,14,02,16.80
2009,07,23,14,03,16.90
2009,07,23,14,04,16.90
2009,07,23,14,05,17.00
2009,07,23,14,06,17.10
2009,07,23,14,07,17.20
2009,07,23,14,08,17.30
2009,07,23,14,09,17.30
2009,07,23,14,10,17.20
2009,07,23,14,11,17.10
2009,07,23,14,12,17.10
2009,07,23,14,13,17.10
2009,07,23,14,14,17.20
2009,07,23,14,15,17.20
2009,07,23,14,16,17.20
2009,07,23,14,17,17.20
2009,07,23,14,18,17.30
2009,07,23,14,19,17.50
2009,07,23,14,20,17.70
2009,07,23,14,21,17.80
2009,07,23,14,22,17.90
2009,07,23,14,23,18.00
2009,07,23,14,24,18.10
2009,07,23,14,25,18.10
2009,07,23,14,26,18.10
2009,07,23,14,27,18.00
2009,07,23,14,28,17.90
2009,07,23,14,29,17.90
2009,07,23,14,30,17.90
2009,07,23,14,31,18.00
2009,07,23,14,32,18.10
2009,07,23,14,33,18.10
2009,07,23,14,34,18.10
2009,07,23,14,35,18.10
2009,07,23,14,36,18.00
2009,07,23,14,37,17.90
2009,07,23,14,38,18.00
2009,07,23,14,39,18.10
2009,07,23,14,40,18.10
2009,07,23,14,41,18.00
2009,07,23,14,42,17.90
2009,07,23,14,43,17.80
2009,07,23,14,44,17.70
2009,07,23,14,45,17.70
2009,07,23,14,46,17.80
2009,07,23,14,47,17.80
2009,07,23,14,48,17.80
2009,07,23,14,49,17.80
2009,07,23,14,50,17.70
2009,07,23,14,51,17.70
2009,07,23,14,52,17.80
2009,07,23,14,53,17.80
2009,07,23,14,54,17.80
2009,07,23,14,55,17.80
2009,07,23,14,56,17.70
2009,07,23,14,57,17.60
2009,07,23,14,58,17.50
2009,07,23,14,59,17.40
2009,07,23,15,00,17.30
2009,07,23,15,01,17.30
2009,07,23,15,02,17.40
2009,07,23,15,03,17.50
2009,07,23,15,04,17.60
2009,07,23,15,05,17.60
2009,07,23,15,06,17.70
2009,07,23,15,07,17.70
2009,07,23,15,08,17.60
2009,07,23,15,09,17.50
2009,07,23,15,10,17.50
2009,07,23,15,11,17.60
2009,07,23,15,12,17.70
2009,07,23,15,13,17.70
2009,07,23,15,14,17.80
2009,07,23,15,15,17.80
2009,07,23,15,16,17.80
2009,07,23,15,17,17.80
2009,07,23,15,18,17.80
2009,07,23,15,19,17.90
2009,07,23,15,20,17.90
2009,07,23,15,21,18.00
2009,07,23,15,22,18.10
2009,07,23,15,23,18.20
2009,07,23,15,24,18.20
2009,07,23,15,25,18.20
2009,07,23,15,26,18.20
2009,07,23,15,27,18.30
2009,07,23,15,28,18.20
2009,07,23,15,29,18.30
2009,07,23,15,30,18.30
2009,07,23,15,31,18.30
2009,07,23,15,32,18.30
2009,07,23,15,33,18.20
2009,07,23,15,34,18.20
2009,07,23,15,35,17.90
2009,07,23,15,36,17.80
2009,07,23,15,37,17.70
2009,07,23,15,38,17.70
2009,07,23,15,39,17.80
2009,07,23,15,40,17.90
2009,07,23,15,41,18.00
2009,07,23,15,42,18.00
2009,07,23,15,43,17.90
2009,07,23,15,44,17.80
2009,07,23,15,45,17.80
2009,07,23,15,46,17.70
2009,07,23,15,47,17.70
2009,07,23,15,48,17.70
2009,07,23,15,49,17.60
2009,07,23,15,50,17.50
2009,07,23,15,51,17.40
2009,07,23,15,52,17.40
2009,07,23,15,53,17.40
2009,07,23,15,54,17.20
2009,07,23,15,55,17.10
2009,07,23,15,56,17.00
2009,07,23,15,57,16.80
2009,07,23,15,58,16.80
2009,07,23,15,59,16.80
2009,07,23,16,00,16.70
2009,07,23,16,01,16.50
2009,07,23,16,02,16.30
2009,07,23,16,03,16.20
2009,07,23,16,04,16.20
2009,07,23,16,05,16.30
2009,07,23,16,06,16.30
2009,07,23,16,07,16.40
2009,07,23,16,08,16.50
2009,07,23,16,09,16.50
2009,07,23,16,10,16.60
2009,07,23,16,11,16.60
2009,07,23,16,12,16.70
2009,07,23,16,13,16.70
2009,07,23,16,14,16.80
2009,07,23,16,15,16.90
2009,07,23,16,16,16.80
2009,07,23,16,17,16.80
2009,07,23,16,18,16.80
2009,07,23,16,19,16.80
2009,07,23,16,20,16.80
2009,07,23,16,21,16.80
2009,07,23,16,22,16.80
2009,07,23,16,23,16.80
2009,07,23,16,24,16.80
2009,07,23,16,25,16.90
2009,07,23,16,26,17.10
2009,07,23,16,27,17.20
2009,07,23,16,28,17.40
2009,07,23,16,29,17.60
2009,07,23,16,30,17.70
2009,07,23,16,31,17.80
2009,07,23,16,32,17.90
2009,07,23,16,33,17.90
2009,07,23,16,34,17.70
2009,07,23,16,35,17.60
2009,07,23,16,36,17.60
2009,07,23,16,37,17.50
2009,07,23,16,38,17.50
2009,07,23,16,39,17.60
2009,07,23,16,40,17.70
2009,07,23,16,41,17.70
2009,07,23,16,42,17.70
2009,07,23,16,43,17.70
2009,07,23,16,44,17.80
2009,07,23,16,45,17.80
2009,07,23,16,46,17.70
2009,07,23,16,47,17.70
2009,07,23,16,48,17.70
2009,07,23,16,49,17.70
2009,07,23,16,50,17.70
2009,07,23,16,51,17.70
2009,07,23,16,52,17.70
2009,07,23,16,53,17.80
2009,07,23,16,54,17.90
2009,07,23,16,55,18.00
2009,07,23,16,56,18.10
2009,07,23,16,57,18.20
2009,07,23,16,58,18.30
2009,07,23,16,59,18.40
2009,07,23,17,00,18.40
2009,07,23,17,01,18.40
2009,07,23,17,02,18.40
2009,07,23,17,03,18.40
2009,07,23,17,04,18.40
2009,07,23,17,05,18.40
2009,07,23,17,06,18.40
2009,07,23,17,07,18.40
2009,07,23,17,08,18.30
2009,07,23,17,09,18.30
2009,07,23,17,10,18.30
2009,07,23,17,11,18.30
2009,07,23,17,12,18.20
2009,07,23,17,13,18.20
2009,07,23,17,14,18.20
2009,07,23,17,15,18.20
2009,07,23,17,16,18.20
2009,07,23,17,17,18.20
2009,07,23,17,18,18.20
2009,07,23,17,19,18.30
2009,07,23,17,20,18.30
2009,07,23,17,21,18.30
2009,07,23,17,22,18.30
2009,07,23,17,23,18.20
2009,07,23,17,24,18.20
2009,07,23,17,25,18.20
2009,07,23,17,26,18.20
2009,07,23,17,27,18.20
2009,07,23,17,28,18.20
2009,07,23,17,29,18.20
2009,07,23,17,30,18.20
2009,07,23,17,31,18.10
2009,07,23,17,32,18.10
2009,07,23,17,33,18.00
2009,07,23,17,34,17.90
2009,07,23,17,35,17.80
2009,07,23,17,36,17.80
2009,07,23,17,37,17.70
2009,07,23,17,38,17.60
2009,07,23,17,39,17.60
2009,07,23,17,40,17.60
2009,07,23,17,41,17.50
2009,07,23,17,42,17.50
2009,07,23,17,43,17.40
2009,07,23,17,44,17.30
2009,07,23,17,45,17.20
2009,07,23,17,46,17.20
2009,07,23,17,47,17.20
2009,07,23,17,48,17.20
2009,07,23,17,49,17.20
2009,07,23,17,50,17.30
2009,07,23,17,51,17.30
2009,07,23,17,52,17.40
2009,07,23,17,53,17.50
2009,07,23,17,54,17.60
2009,07,23,17,55,17.60
2009,07,23,17,56,17.70
2009,07,23,17,57,17.70
2009,07,23,17,58,17.80
2009,07,23,17,59,17.80
2009,07,23,18,00,17.90
2009,07,23,18,01,17.90
2009,07,23,18,02,17.90
2009,07,23,18,03,17.90
2009,07,23,18,04,17.90
2009,07,23,18,05,17.90
2009,07,23,18,06,17.90
2009,07,23,18,07,17.90
2009,07,23,18,08,17.80
2009,07,23,18,09,17.70
2009,07,23,18,10,17.60
2009,07,23,18,11,17.70
2009,07,23,18,12,17.70
2009,07,23,18,13,17.70
2009,07,23,18,14,17.70
2009,07,23,18,15,17.70
2009,07,23,18,16,17.70
2009,07,23,18,17,17.80
2009,07,23,18,18,17.80
2009,07,23,18,19,17.80
2009,07,23,18,20,17.80
2009,07,23,18,21,17.80
2009,07,23,18,22,17.70
2009,07,23,18,23,17.70
2009,07,23,18,24,17.70
2009,07,23,18,25,17.70
2009,07,23,18,26,17.70
2009,07,23,18,27,17.70
2009,07,23,18,28,17.70
2009,07,23,18,29,17.70
2009,07,23,18,30,17.70
2009,07,23,18,31,17.70
2009,07,23,18,32,17.60
2009,07,23,18,33,17.60
2009,07,23,18,34,17.50
2009,07,23,18,35,17.40
2009,07,23,18,36,17.40
2009,07,23,18,37,17.30
2009,07,23,18,38,17.30
2009,07,23,18,39,17.30
2009,07,23,18,40,17.30
2009,07,23,18,41,17.30
2009,07,23,18,42,17.30
2009,07,23,18,43,17.40
2009,07,23,18,44,17.40
2009,07,23,18,45,17.40
2009,07,23,18,46,17.40
2009,07,23,18,47,17.40
2009,07,23,18,48,17.40
2009,07,23,18,49,17.50
2009,07,23,18,50,17.40
2009,07,23,18,51,17.50
2009,07,23,18,52,17.50
2009,07,23,18,53,17.50
2009,07,23,18,54,17.50
2009,07,23,18,55,17.40
2009,07,23,18,56,17.40
2009,07,23,18,57,17.40
2009,07,23,18,58,17.40
2009,07,23,18,59,17.40
2009,07,23,19,00,17.40
2009,07,23,19,01,17.30
2009,07,23,19,02,17.30
2009,07,23,19,03,17.20
2009,07,23,19,04,17.20
2009,07,23,19,05,17.20
2009,07,23,19,06,17.20
2009,07,23,19,07,17.10
2009,07,23,19,08,17.10
2009,07,23,19,09,17.10
2009,07,23,19,10,17.10
2009,07,23,19,11,17.10
2009,07,23,19,12,17.10
2009,07,23,19,13,17.10
2009,07,23,19,14,17.10
2009,07,23,19,15,17.10
2009,07,23,19,16,17.10
2009,07,23,19,17,17.10
2009,07,23,19,18,17.10
2009,07,23,19,19,17.10
